TimeCDT,TemperatureF,Dew PointF,Humidity,Sea Level PressureIn,VisibilityMPH,Wind Direction,Wind SpeedMPH,Gust SpeedMPH,PrecipitationIn,Events,Conditions,WindDirDegrees,DateUTC
12:56 AM,68.0,68.0,100,30.00,6.0,Calm,Calm,-,N/A,,Clear,0,2013-07-09 05:56:00
1:40 AM,66.2,-9999,N/A,30.01,2.0,Calm,Calm,-,N/A,,Clear,0,2013-07-09 06:40:00
1:48 AM,66.2,-9999,N/A,30.01,2.5,Calm,Calm,-,N/A,,Partly Cloudy,0,2013-07-09 06:48:00
1:56 AM,65.8,-9999,N/A,29.98,4.0,Calm,Calm,-,N/A,,Haze,0,2013-07-09 06:56:00
2:09 AM,66.2,-9999,N/A,30.00,6.0,Calm,Calm,-,N/A,,Haze,0,2013-07-09 07:09:00
2:19 AM,66.2,-9999,N/A,30.01,4.0,Calm,Calm,-,N/A,,Haze,0,2013-07-09 07:19:00
2:26 AM,66.2,-9999,N/A,30.00,1.2,Calm,Calm,-,N/A,,Mostly Cloudy,0,2013-07-09 07:26:00
2:28 AM,66.2,-9999,N/A,30.00,0.8,Calm,Calm,-,N/A,,Overcast,0,2013-07-09 07:28:00
2:35 AM,66.2,-9999,N/A,30.01,0.2,Calm,Calm,-,N/A,Fog,Fog,0,2013-07-09 07:35:00
2:56 AM,65.8,-9999,N/A,29.98,0.2,Calm,Calm,-,N/A,Fog,Fog,0,2013-07-09 07:56:00
3:34 AM,66.2,-9999,N/A,29.99,0.2,Calm,Calm,-,N/A,Fog,Fog,0,2013-07-09 08:34:00
3:56 AM,65.8,-9999,N/A,29.97,0.2,Calm,Calm,-,N/A,Fog,Fog,0,2013-07-09 08:56:00
4:35 AM,64.4,-9999,N/A,29.99,0.2,Calm,Calm,-,N/A,Fog,Fog,0,2013-07-09 09:35:00
4:46 AM,64.4,-9999,N/A,29.99,0.5,Calm,Calm,-,N/A,Fog,Fog,0,2013-07-09 09:46:00
4:56 AM,64.9,-9999,N/A,29.96,0.5,Calm,Calm,-,N/A,Fog,Fog,0,2013-07-09 09:56:00
5:08 AM,64.4,-9999,N/A,29.98,0.2,Calm,Calm,-,N/A,Fog,Fog,0,2013-07-09 10:08:00
5:37 AM,64.4,-9999,N/A,29.98,0.2,Calm,Calm,-,N/A,Fog,Fog,0,2013-07-09 10:37:00
5:56 AM,63.9,-9999,N/A,29.96,0.2,Calm,Calm,-,N/A,Fog,Fog,0,2013-07-09 10:56:00
6:11 AM,64.4,-9999,N/A,29.98,0.2,Calm,Calm,-,N/A,Fog,Fog,0,2013-07-09 11:11:00
6:24 AM,64.4,-9999,N/A,29.98,0.8,Calm,Calm,-,N/A,,Mostly Cloudy,0,2013-07-09 11:24:00
6:26 AM,64.4,-9999,N/A,29.98,1.5,Calm,Calm,-,N/A,,Mostly Cloudy,0,2013-07-09 11:26:00
6:39 AM,66.2,-9999,N/A,29.99,2.5,Calm,Calm,-,N/A,,Partly Cloudy,0,2013-07-09 11:39:00
6:56 AM,66.9,-9999,N/A,29.96,2.5,Calm,Calm,-,N/A,,Clear,0,2013-07-09 11:56:00
7:17 AM,69.8,-9999,N/A,29.98,4.0,Calm,Calm,-,N/A,,Haze,0,2013-07-09 12:17:00
7:25 AM,69.8,-9999,N/A,29.97,5.0,SE,3.5,-,N/A,,Haze,130,2013-07-09 12:25:00
7:56 AM,72.0,72.0,100,29.95,9.0,SE,5.8,-,N/A,,Overcast,140,2013-07-09 12:56:00
8:04 AM,71.6,71.6,100,29.97,10.0,SSE,6.9,-,N/A,,Overcast,150,2013-07-09 13:04:00
8:36 AM,73.4,71.6,94,29.96,10.0,ESE,4.6,-,N/A,,Scattered Clouds,110,2013-07-09 13:36:00
8:56 AM,73.9,70.9,90,29.93,10.0,East,4.6,-,N/A,,Clear,80,2013-07-09 13:56:00
9:38 AM,77.0,71.6,83,29.96,10.0,Variable,6.9,-,N/A,,Mostly Cloudy,0,2013-07-09 14:38:00
9:56 AM,77.9,70.9,79,29.93,10.0,Variable,6.9,-,N/A,,Scattered Clouds,0,2013-07-09 14:56:00
10:56 AM,75.9,72.9,90,29.91,9.0,SSE,5.8,-,N/A,,Scattered Clouds,160,2013-07-09 15:56:00
11:02 AM,75.2,73.4,94,29.96,1.5,WSW,17.3,-,0.08,Rain,Light Rain,240,2013-07-09 16:02:00
11:04 AM,75.2,73.4,94,29.96,0.8,SW,10.4,18.4,0.17,Rain,Heavy Rain,220,2013-07-09 16:04:00
11:07 AM,71.6,69.8,94,29.94,0.2,Calm,Calm,-,0.23,Fog-Rain,Heavy Rain,0,2013-07-09 16:07:00
11:15 AM,71.6,71.6,100,29.94,0.8,South,4.6,-,0.25,Rain,Light Rain,170,2013-07-09 16:15:00
11:17 AM,71.6,71.6,100,29.94,1.5,South,4.6,-,0.25,Rain,Light Rain,180,2013-07-09 16:17:00
11:19 AM,71.6,71.6,100,29.94,4.0,South,5.8,-,0.25,Rain,Light Rain,170,2013-07-09 16:19:00
11:38 AM,71.6,71.6,100,29.94,10.0,Variable,3.5,-,0.25,,Scattered Clouds,0,2013-07-09 16:38:00
11:56 AM,72.9,72.9,100,29.91,9.0,SE,5.8,-,0.25,Rain,Light Rain,130,2013-07-09 16:56:00
12:56 PM,73.9,73.9,100,29.89,10.0,South,8.1,-,0.00,,Clear,190,2013-07-09 17:56:00
1:56 PM,73.9,73.9,100,29.84,7.0,SE,9.2,-,0.00,,Scattered Clouds,130,2013-07-09 18:56:00
2:56 PM,77.0,68.9,76,29.84,10.0,South,10.4,-,N/A,,Scattered Clouds,170,2013-07-09 19:56:00
3:37 PM,78.8,71.6,78,29.86,10.0,South,12.7,-,N/A,,Mostly Cloudy,190,2013-07-09 20:37:00
3:56 PM,80.6,73.4,79,29.85,10.0,SSW,8.1,-,N/A,,Mostly Cloudy,200,2013-07-09 20:56:00
4:24 PM,80.6,73.4,79,29.84,10.0,SSW,11.5,-,N/A,,Scattered Clouds,210,2013-07-09 21:24:00
4:56 PM,81.9,74.8,79,29.79,10.0,SSW,9.2,-,N/A,,Partly Cloudy,210,2013-07-09 21:56:00
5:56 PM,83.8,72.9,69,29.78,10.0,SW,10.4,-,N/A,,Scattered Clouds,220,2013-07-09 22:56:00
6:56 PM,82.9,72.9,71,29.77,10.0,SW,10.4,-,N/A,,Partly Cloudy,230,2013-07-09 23:56:00
7:56 PM,81.0,73.9,79,29.77,10.0,SW,9.2,-,N/A,,Partly Cloudy,230,2013-07-10 00:56:00
8:56 PM,79.9,68.9,69,29.79,10.0,WNW,15.0,21.9,0.00,Rain,Light Rain,300,2013-07-10 01:56:00
9:56 PM,75.9,68.0,76,29.81,10.0,WSW,5.8,-,0.00,,Clear,250,2013-07-10 02:56:00
10:56 PM,72.9,68.9,87,29.82,10.0,WSW,5.8,-,N/A,,Clear,240,2013-07-10 03:56:00
11:56 PM,72.9,68.9,87,29.82,10.0,WSW,6.9,-,N/A,,Clear,240,2013-07-10 04:56:00